Terminal Aerodrome Forecast
Issued by NWS

Home | Current Version | Previous Version | Text Only | Print | Product List | Glossary On
Versions: 1 2 3 4 5 6 7 8 9 10 11 12 13 14 15 16 17 18 19 20 21 22 23
000
FTUS45 KSLC 281120
TAFENV
TAF
KENV 281120Z 2812/2912 28010KT P6SM VCSH SCT090 BKN140
     FM281500 17007KT P6SM VCSH SCT070 BKN100
     FM282100 11011KT P6SM VCTS BKN070CB OVC100
     FM290300 06008KT P6SM VCSH SCT070 BKN100
      AMD LTD TO CLD VIS AND WIND=

USA.gov is the U.S. government's official web portal to all federal, state and local government web resources and services.